�������l�o���
Date,Time,MP-1(��Sv/h),MP-2(��Sv/h),MP-3(��Sv/h),MP-4(��Sv/h),MP-5(��Sv/h),MP-6(��Sv/h),MP-7(��Sv/h),����,����(m/s),���J
2020/10/28,00:00,0.173,0.155,0.252,0.239,0.242,0.136,0.082,��,0.7,��
2020/10/28,00:10,0.175,0.155,0.251,0.239,0.242,0.136,0.082,-,CALM,��
2020/10/28,00:20,0.173,0.154,0.251,0.240,0.241,0.136,0.083,-,CALM,��
2020/10/28,00:30,0.174,0.155,0.251,0.238,0.242,0.136,0.083,-,CALM,��
2020/10/28,00:40,0.174,0.154,0.252,0.238,0.242,0.136,0.082,���쐼,0.7,��
2020/10/28,00:50,0.175,0.154,0.251,0.240,0.241,0.136,0.082,���쐼,0.6,��
2020/10/28,01:00,0.173,0.154,0.252,0.238,0.244,0.135,0.082,���쐼,0.9,��
2020/10/28,01:10,0.174,0.155,0.251,0.239,0.242,0.136,0.083,-,CALM,��
2020/10/28,01:20,0.174,0.154,0.250,0.239,0.242,0.136,0.082,-,CALM,��
2020/10/28,01:30,0.174,0.155,0.252,0.238,0.243,0.136,0.082,-,CALM,��
2020/10/28,01:40,0.175,0.154,0.251,0.237,0.242,0.136,0.082,-,CALM,��
2020/10/28,01:50,0.174,0.154,0.251,0.239,0.242,0.136,0.083,-,CALM,��
2020/10/28,02:00,0.175,0.155,0.251,0.240,0.242,0.136,0.082,-,CALM,��
2020/10/28,02:10,0.175,0.154,0.251,0.238,0.241,0.135,0.082,-,CALM,��
2020/10/28,02:20,0.174,0.155,0.252,0.238,0.242,0.136,0.082,-,CALM,��
2020/10/28,02:30,0.174,0.154,0.252,0.238,0.241,0.136,0.082,-,CALM,��
2020/10/28,02:40,0.174,0.155,0.251,0.238,0.241,0.136,0.082,���쐼,0.7,��
2020/10/28,02:50,0.175,0.154,0.251,0.239,0.242,0.136,0.083,-,CALM,��
2020/10/28,03:00,0.174,0.155,0.251,0.240,0.241,0.136,0.082,���쐼,1.1,��
2020/10/28,03:10,0.175,0.154,0.251,0.238,0.242,0.135,0.082,��,1.0,��
2020/10/28,03:20,0.174,0.154,0.252,0.238,0.241,0.136,0.082,���쐼,1.4,��
2020/10/28,03:30,0.174,0.155,0.251,0.239,0.240,0.136,0.082,���쐼,0.7,��
2020/10/28,03:40,0.174,0.154,0.251,0.239,0.241,0.135,0.082,-,CALM,��
2020/10/28,03:50,0.173,0.155,0.252,0.239,0.241,0.136,0.082,-,CALM,��
2020/10/28,04:00,0.174,0.154,0.251,0.239,0.240,0.136,0.082,-,CALM,��
2020/10/28,04:10,0.174,0.154,0.251,0.239,0.243,0.136,0.083,��,1.2,��
2020/10/28,04:20,0.174,0.154,0.251,0.238,0.242,0.136,0.082,���k��,0.9,��
2020/10/28,04:30,0.174,0.155,0.252,0.238,0.241,0.136,0.082,���k��,1.2,��
2020/10/28,04:40,0.175,0.155,0.251,0.240,0.243,0.135,0.082,�k��,1.2,��
2020/10/28,04:50,0.174,0.154,0.251,0.238,0.241,0.135,0.083,�k��,2.4,��
2020/10/28,05:00,0.175,0.155,0.252,0.238,0.242,0.136,0.083,�k��,2.8,��
2020/10/28,05:10,0.175,0.154,0.252,0.238,0.243,0.136,0.082,�k�k��,2.7,��
2020/10/28,05:20,0.174,0.154,0.251,0.239,0.241,0.136,0.082,�k�k��,3.1,��
2020/10/28,05:30,0.175,0.155,0.252,0.239,0.241,0.136,0.083,�k�k��,4.0,��
2020/10/28,05:40,0.174,0.154,0.251,0.240,0.242,0.136,0.083,�k�k��,4.2,��
2020/10/28,05:50,0.174,0.154,0.252,0.238,0.242,0.136,0.082,�k�k��,3.3,��
2020/10/28,06:00,0.175,0.156,0.253,0.238,0.243,0.136,0.082,�k�k��,4.6,��
2020/10/28,06:10,0.174,0.155,0.252,0.239,0.242,0.136,0.083,�k�k��,4.3,��
2020/10/28,06:20,0.174,0.154,0.251,0.238,0.240,0.136,0.082,�k�k��,4.2,��
2020/10/28,06:30,0.176,0.155,0.252,0.238,0.241,0.136,0.083,�k�k��,3.9,��
2020/10/28,06:40,0.174,0.155,0.253,0.239,0.241,0.135,0.083,�k�k��,4.4,��
2020/10/28,06:50,0.174,0.154,0.251,0.239,0.242,0.136,0.083,�k�k��,4.1,��
2020/10/28,07:00,0.174,0.155,0.251,0.239,0.242,0.136,0.082,�k�k��,4.5,��
2020/10/28,07:10,0.174,0.154,0.252,0.238,0.241,0.136,0.083,�k�k��,4.0,��
2020/10/28,07:20,0.174,0.154,0.250,0.238,0.242,0.135,0.082,�k�k��,4.0,��
2020/10/28,07:30,0.176,0.155,0.251,0.238,0.242,0.135,0.083,�k�k��,4.6,��
2020/10/28,07:40,0.174,0.154,0.253,0.238,0.242,0.135,0.082,�k�k��,4.7,��
2020/10/28,07:50,0.176,0.154,0.252,0.238,0.243,0.136,0.082,�k�k��,4.8,��
2020/10/28,08:00,0.175,0.155,0.251,0.238,0.242,0.135,0.082,�k�k��,4.2,��
2020/10/28,08:10,0.176,0.155,0.252,0.238,0.243,0.137,0.083,�k�k��,4.5,��
2020/10/28,08:20,0.174,0.154,0.251,0.238,0.241,0.135,0.082,�k�k��,3.6,��
2020/10/28,08:30,0.174,0.155,0.251,0.240,0.244,0.135,0.082,�k��,2.9,��
2020/10/28,08:40,0.175,0.154,0.252,0.237,0.241,0.135,0.083,�k�k��,2.6,��
2020/10/28,08:50,0.174,0.154,0.251,0.239,0.243,0.135,0.083,�k�k��,2.3,��
2020/10/28,09:00,0.174,0.153,0.251,0.238,0.241,0.136,0.082,�k�k��,1.6,��
2020/10/28,09:10,0.174,0.155,0.249,0.239,0.242,0.135,0.082,�k,1.0,��
2020/10/28,09:20,0.174,0.154,0.254,0.237,0.241,0.135,0.082,�k�k��,1.1,��
2020/10/28,09:30,0.173,0.154,0.249,0.237,0.242,0.134,0.082,�k�k��,1.6,��
2020/10/28,09:40,0.176,0.154,0.251,0.238,0.238,0.136,0.084,�k�k��,1.6,��
2020/10/28,09:50,0.174,0.154,0.250,0.236,0.241,0.135,0.083,�k��,1.7,��
2020/10/28,10:00,0.172,0.154,0.252,0.238,0.241,0.134,0.082,�k��,2.2,��
2020/10/28,10:10,0.174,0.153,0.250,0.238,0.239,0.136,0.083,�k��,2.3,��
2020/10/28,10:20,0.172,0.154,0.250,0.236,0.242,0.136,0.082,�k��,2.6,��
2020/10/28,10:30,0.172,0.154,0.251,0.239,0.241,0.136,0.083,�k�k��,1.5,��
2020/10/28,10:40,0.174,0.154,0.250,0.237,0.240,0.135,0.083,���k��,2.2,��
2020/10/28,10:50,0.173,0.154,0.251,0.239,0.243,0.136,0.083,�k��,2.8,��
2020/10/28,11:00,0.174,0.155,0.249,0.240,0.241,0.136,0.083,��,2.1,��
2020/10/28,11:10,0.176,0.153,0.252,0.238,0.240,0.136,0.082,��,2.3,��
2020/10/28,11:20,0.173,0.154,0.250,0.239,0.243,0.136,0.083,��,2.9,��
2020/10/28,11:30,0.172,0.155,0.250,0.239,0.242,0.136,0.082,��,2.5,��
2020/10/28,11:40,0.174,0.154,0.252,0.237,0.241,0.136,0.082,��,3.2,��
2020/10/28,11:50,0.173,0.155,0.251,0.240,0.244,0.136,0.083,��,3.0,��
2020/10/28,12:00,0.175,0.154,0.252,0.238,0.241,0.135,0.082,��,2.6,��
2020/10/28,12:10,0.175,0.155,0.252,0.240,0.243,0.137,0.083,��,2.8,��
2020/10/28,12:20,0.173,0.153,0.254,0.239,0.243,0.136,0.082,��,2.9,��
2020/10/28,12:30,0.175,0.155,0.251,0.237,0.240,0.136,0.082,��,2.4,��
2020/10/28,12:40,0.174,0.153,0.251,0.239,0.243,0.136,0.082,���쓌,2.0,��
2020/10/28,12:50,0.172,0.155,0.252,0.238,0.242,0.136,0.082,���쓌,2.1,��
2020/10/28,13:00,0.175,0.155,0.250,0.238,0.240,0.136,0.082,���쓌,2.1,��
2020/10/28,13:10,0.174,0.154,0.252,0.241,0.243,0.136,0.083,��,2.4,��
2020/10/28,13:20,0.173,0.154,0.251,0.237,0.242,0.136,0.082,��,2.0,��
2020/10/28,13:30,0.174,0.154,0.251,0.240,0.240,0.136,0.083,���쓌,1.7,��
2020/10/28,13:40,0.175,0.154,0.253,0.239,0.242,0.135,0.082,���쓌,2.8,��
2020/10/28,13:50,0.173,0.155,0.250,0.237,0.243,0.137,0.082,���쓌,2.7,��
2020/10/28,14:00,0.173,0.153,0.251,0.239,0.240,0.135,0.083,���쓌,2.4,��
2020/10/28,14:10,0.174,0.154,0.251,0.238,0.243,0.135,0.082,�쓌,2.1,��
2020/10/28,14:20,0.175,0.155,0.249,0.238,0.243,0.136,0.083,�쓌,2.4,��
2020/10/28,14:30,0.172,0.154,0.254,0.240,0.241,0.136,0.082,���쓌,2.4,��
2020/10/28,14:40,0.175,0.155,0.251,0.238,0.244,0.137,0.083,�쓌,2.8,��
2020/10/28,14:50,0.174,0.154,0.253,0.240,0.241,0.134,0.082,�쓌,2.5,��
2020/10/28,15:00,0.174,0.154,0.251,0.240,0.243,0.135,0.083,��쓌,1.8,��
2020/10/28,15:10,0.174,0.154,0.253,0.241,0.242,0.137,0.082,��쓌,2.0,��
2020/10/28,15:20,0.174,0.154,0.251,0.238,0.243,0.135,0.082,��쓌,2.1,��
2020/10/28,15:30,0.176,0.154,0.253,0.241,0.243,0.137,0.083,�쓌,2.9,��
2020/10/28,15:40,0.173,0.154,0.252,0.239,0.241,0.135,0.083,��쓌,3.4,��
2020/10/28,15:50,0.174,0.154,0.253,0.240,0.243,0.136,0.083,�쓌,2.9,��
2020/10/28,16:00,0.173,0.154,0.250,0.239,0.241,0.136,0.082,�쓌,3.3,��
2020/10/28,16:10,0.175,0.154,0.254,0.241,0.243,0.136,0.082,��쓌,3.8,��
2020/10/28,16:20,0.173,0.154,0.252,0.239,0.242,0.135,0.083,��쓌,3.2,��
2020/10/28,16:30,0.176,0.153,0.253,0.240,0.243,0.137,0.082,��,3.5,��
2020/10/28,16:40,0.174,0.154,0.252,0.238,0.240,0.135,0.083,��,4.3,��
2020/10/28,16:50,0.175,0.156,0.252,0.240,0.245,0.136,0.082,��,3.6,��
2020/10/28,17:00,0.174,0.154,0.252,0.240,0.243,0.136,0.083,��,3.4,��
2020/10/28,17:10,0.175,0.155,0.253,0.241,0.242,0.136,0.083,��,3.9,��
2020/10/28,17:20,0.174,0.154,0.252,0.240,0.242,0.136,0.083,��,4.1,��
2020/10/28,17:30,0.176,0.156,0.252,0.239,0.244,0.136,0.082,��,1.9,��
2020/10/28,17:40,0.174,0.155,0.252,0.240,0.242,0.136,0.082,��,4.2,��
2020/10/28,17:50,0.175,0.154,0.252,0.238,0.242,0.136,0.082,��,4.6,��
2020/10/28,18:00,0.174,0.156,0.253,0.241,0.242,0.137,0.083,��쐼,4.7,��
2020/10/28,18:10,0.175,0.153,0.253,0.238,0.241,0.135,0.083,��쐼,4.2,��
2020/10/28,18:20,0.174,0.155,0.253,0.240,0.243,0.136,0.083,��쐼,4.4,��
2020/10/28,18:30,0.174,0.155,0.253,0.241,0.243,0.137,0.083,��쐼,4.6,��
2020/10/28,18:40,0.174,0.155,0.252,0.240,0.244,0.137,0.082,��쐼,4.0,��
2020/10/28,18:50,0.174,0.155,0.254,0.242,0.241,0.135,0.083,��쐼,4.4,��
2020/10/28,19:00,0.176,0.155,0.253,0.239,0.243,0.136,0.083,��쐼,2.6,��
2020/10/28,19:10,0.173,0.155,0.252,0.241,0.243,0.136,0.083,��쐼,4.0,��
2020/10/28,19:20,0.175,0.155,0.254,0.240,0.243,0.136,0.083,��쐼,3.7,��
2020/10/28,19:30,0.175,0.154,0.252,0.239,0.242,0.136,0.082,��쐼,3.5,��
2020/10/28,19:40,0.175,0.154,0.253,0.241,0.242,0.135,0.083,��쐼,3.1,��
2020/10/28,19:50,0.175,0.155,0.252,0.239,0.244,0.136,0.082,�쐼,2.7,��
2020/10/28,20:00,0.174,0.155,0.253,0.240,0.241,0.136,0.083,�쐼,2.7,��
2020/10/28,20:10,0.175,0.155,0.253,0.240,0.243,0.135,0.083,��쐼,2.5,��
2020/10/28,20:20,0.174,0.154,0.251,0.240,0.240,0.137,0.083,��쐼,2.7,��
2020/10/28,20:30,0.175,0.156,0.253,0.241,0.245,0.136,0.082,��,1.6,��
2020/10/28,20:40,0.174,0.154,0.252,0.239,0.242,0.136,0.083,��,2.0,��
2020/10/28,20:50,0.174,0.155,0.252,0.240,0.244,0.137,0.082,��,2.2,��
2020/10/28,21:00,0.175,0.156,0.253,0.240,0.241,0.136,0.083,��쐼,4.7,��
2020/10/28,21:10,0.175,0.154,0.252,0.241,0.242,0.136,0.082,��쐼,5.1,��
2020/10/28,21:20,0.174,0.155,0.254,0.240,0.242,0.137,0.083,��쐼,4.2,��
2020/10/28,21:30,0.176,0.155,0.252,0.238,0.242,0.136,0.083,��쐼,4.6,��
2020/10/28,21:40,0.174,0.155,0.253,0.240,0.243,0.135,0.083,��쐼,5.0,��
2020/10/28,21:50,0.175,0.155,0.254,0.240,0.241,0.136,0.083,�쐼,4.7,��
2020/10/28,22:00,0.175,0.155,0.253,0.240,0.244,0.138,0.083,�쐼,5.2,��
2020/10/28,22:10,0.174,0.156,0.254,0.241,0.242,0.137,0.083,�쐼,4.7,��
2020/10/28,22:20,0.175,0.154,0.253,0.240,0.244,0.137,0.084,�쐼,5.0,��
2020/10/28,22:30,0.175,0.155,0.254,0.240,0.242,0.136,0.083,�쐼,3.9,��
2020/10/28,22:40,0.174,0.155,0.254,0.240,0.244,0.138,0.083,�쐼,4.4,��
2020/10/28,22:50,0.175,0.155,0.252,0.239,0.243,0.136,0.083,�쐼,3.3,��
2020/10/28,23:00,0.175,0.157,0.252,0.241,0.243,0.136,0.083,�쐼,3.5,��
2020/10/28,23:10,0.175,0.156,0.253,0.240,0.244,0.136,0.083,�쐼,3.8,��
2020/10/28,23:20,0.175,0.155,0.251,0.238,0.241,0.136,0.083,�쐼,3.9,��
2020/10/28,23:30,0.175,0.154,0.251,0.241,0.244,0.136,0.083,�쐼,4.6,��
2020/10/28,23:40,0.175,0.155,0.252,0.240,0.242,0.136,0.083,�쐼,5.1,��
2020/10/28,23:50,0.175,0.155,0.252,0.239,0.244,0.137,0.083,�쐼,4.8,��
